Temp
-6 -6 -6 -6 -6 -6 -6 -6 -6 -6 -6 -6 -6 -5 -5 -5 -5 -6 -5 -5 -5 -4 -4 -5 -5 -4 -3 -2 -2 -2 -2 -4 -3 -2 -2 -2 -2 -2 -3 -2 -1 -3 -3 -1
-8 -8 -8 -8 -8 -7 -8 -7 -7 -7 -7 -7 -6 -6 -6 -6 -6 -6 -7 -7 -6 -6 -6 -6 -5 -5 -4 -4 -3 -3 -3 -4 -3 -2 -4 -4 -3 -3 -2 -3 -2 -3 -2 -0
-9 -10 -10 -11 -11 -10 -10 -10 -10 -9 -9 -8 -8 -10 -9 -9 -8 -7 -7 -7 -8 -7 -7 -6 -6 -6 -6 -5 -5 -5 -6 -5 -3 -1 -1 -2 -3 -3 -3 -4 -4 -3 -2 -1
-11 -11 -12 -13 -14 -14 -14 -13 -12 -11 -10 -11 -11 -10 -10 -10 -10 -10 -9 -9 -9 -8 -8 -7 -7 -7 -7 -7 -6 -5 -7 -6 -5 -5 -4 -4 -4 -4 -4 -4 -3 -4 -2 -2
-14 -14 -14 -14 -14 -14 -14 -14 -14 -14 -13 -13 -12 -12 -12 -12 -11 -11 -10 -9 -9 -9 -9 -9 -9 -8 -8 -8 -8 -7 -7 -6 -6 -6 -5 -5 -5 -4 -4 -4 -5 -4 -4 -3
-14 -14 -14 -14 -14 -14 -14 -15 -14 -15 -14 -14 -14 -14 -14 -14 -14 -12 -13 -12 -11 -11 -10 -10 -10 -9 -9 -9 -8 -8 -7 -8 -7 -6 -5 -5 -5 -5 -5 -4 -4 -4 -4 -2
-14 -14 -14 -15 -14 -14 -15 -15 -15 -15 -14 -14 -15 -14 -15 -15 -15 -15 -14 -14 -14 -13 -13 -12 -11 -11 -10 -10 -9 -9 -9 -8 -8 -7 -6 -6 -4 -4 -4 -4 -3 -3 -3 -2
-14 -14 -14 -14 -14 -15 -15 -15 -15 -15 -15 -14 -15 -15 -15 -15 -15 -15 -15 -14 -15 -14 -14 -13 -13 -11 -11 -11 -9 -9 -9 -9 -8 -8 -6 -5 -5 -5 -5 -5 -4 -4 -4 -3
-14 -15 -15 -14 -14 -14 -15 -15 -15 -15 -15 -14 -15 -15 -15 -15 -15 -15 -15 -15 -15 -15 -14 -15 -14 -12 -10 -10 -9 -9 -8 -8 -9 -8 -7 -6 -6 -5 -5 -5 -6 -5 -4 -3
-15 -15 -15 -15 -14 -15 -15 -15 -15 -15 -15 -15 -15 -15 -15 -16 -16 -16 -16 -15 -15 -15 -15 -14 -14 -13 -12 -11 -11 -10 -9 -9 -10 -9 -8 -7 -7 -6 -6 -7 -6 -5 -5 -5
-15 -15 -15 -15 -15 -15 -15 -15 -15 -15 -15 -15 -15 -15 -16 -16 -16 -16 -16 -16 -15 -15 -15 -14 -14 -14 -13 -13 -12 -12 -11 -10 -8 -8 -8 -8 -10 -9 -8 -9 -9 -6 -4 -4
-15 -15 -15 -15 -15 -15 -15 -15 -15 -15 -15 -15 -15 -15 -15 -16 -16 -16 -15 -16 -16 -15 -15 -15 -15 -15 -15 -14 -13 -14 -13 -14 -13 -12 -14 -14 -13 -11 -12 -11 -9 -8 -7 -4
-15 -15 -16 -15 -15 -15 -15 -15 -16 -16 -16 -15 -15 -16 -16 -16 -16 -16 -16 -16 -16 -16 -16 -16 -16 -15 -15 -15 -15 -15 -15 -15 -15 -14 -15 -14 -13 -13 -12 -11 -10 -8 -8 -7
-15 -15 -16 -16 -16 -15 -15 -16 -16 -16 -16 -16 -16 -16 -16 -16 -16 -16 -16 -16 -16 -16 -16 -16 -16 -16 -16 -16 -16 -16 -16 -15 -16 -16 -15 -14 -14 -14 -12 -12 -11 -10 -8 -8
-16 -16 -16 -16 -16 -16 -16 -16 -16 -16 -16 -16 -16 -16 -17 -16 -17 -16 -16 -16 -16 -16 -16 -16 -16 -16 -16 -16 -16 -17 -18 -17 -17 -17 -17 -17 -16 -16 -15 -13 -12 -12 -11 -9
-16 -16 -16 -16 -16 -16 -16 -16 -16 -17 -17 -17 -17 -17 -17 -17 -17 -17 -16 -16 -16 -16 -16 -16 -16 -16 -16 -17 -18 -20 -19 -19 -18 -18 -18 -18 -17 -17 -16 -15 -14 -13 -13 -11
-16 -16 -16 -16 -16 -16 -16 -17 -17 -17 -17 -17 -17 -17 -17 -17 -17 -17 -17 -16 -16 -16 -16 -17 -17 -17 -17 -18 -20 -20 -20 -19 -19 -18 -18 -18 -17 -16 -17 -16 -15 -15 -15 -14
-16 -17 -17 -17 -17 -17 -17 -17 -17 -17 -17 -17 -17 -17 -17 -17 -17 -17 -17 -17 -17 -17 -17 -18 -18 -18 -19 -21 -21 -20 -20 -20 -19 -18 -18 -18 -18 -18 -17 -16 -16 -15 -15 -15
-17 -17 -17 -17 -17 -17 -17 -17 -17 -17 -17 -18 -18 -18 -18 -18 -18 -18 -18 -17 -18 -18 -19 -19 -19 -20 -21 -22 -21 -20 -20 -19 -19 -19 -19 -18 -18 -17 -17 -16 -16 -16 -16 -16
-17 -17 -17 -17 -17 -17 -17 -17 -17 -18 -18 -18 -18 -18 -18 -18 -18 -18 -18 -18 -18 -19 -20 -20 -21 -23 -23 -22 -21 -20 -20 -19 -19 -19 -18 -18 -18 -17 -17 -16 -16 -16 -16 -16
-17 -17 -17 -17 -17 -17 -18 -18 -18 -18 -18 -18 -18 -18 -18 -18 -18 -18 -18 -18 -19 -19 -20 -20 -21 -22 -22 -21 -21 -20 -20 -20 -19 -19 -18 -18 -18 -18 -17 -17 -17 -17 -16 -16
-17 -17 -17 -17 -17 -18 -18 -18 -19 -19 -19 -19 -19 -18 -18 -18 -18 -18 -18 -19 -19 -20 -20 -21 -22 -22 -22 -21 -21 -20 -20 -20 -19 -19 -19 -19 -18 -18 -18 -17 -17 -17 -17 -16
-17 -17 -17 -18 -18 -18 -19 -19 -20 -20 -19 -19 -19 -19 -18 -19 -19 -19 -19 -19 -20 -20 -20 -22 -23 -22 -22 -21 -21 -20 -20 -20 -20 -19 -19 -19 -19 -18 -18 -18 -18 -17 -17 -17
-17 -17 -18 -18 -19 -19 -19 -19 -19 -19 -19 -19 -19 -19 -19 -19 -19 -19 -20 -20 -20 -21 -22 -23 -22 -22 -21 -21 -21 -20 -20 -20 -20 -20 -19 -19 -19 -19 -19 -18 -18 -18 -17 -17
-17 -18 -18 -19 -19 -19 -19 -19 -19 -19 -19 -19 -19 -20 -20 -20 -20 -20 -20 -21 -22 -23 -23 -23 -22 -22 -21 -21 -21 -21 -21 -20 -20 -20 -20 -20 -20 -19 -19 -19 -18 -18 -18 -17
-18 -18 -18 -19 -19 -19 -19 -19 -19 -19 -19 -19 -20 -20 -20 -20 -20 -21 -21 -22 -23 -23 -23 -22 -22 -22 -21 -21 -21 -21 -21 -21 -21 -21 -20 -20 -20 -20 -20 -20 -19 -19 -19 -18
-18 -18 -18 -18 -19 -19 -19 -19 -19 -19 -19 -19 -20 -20 -20 -21 -21 -21 -22 -22 -23 -22 -22 -22 -22 -22 -22 -21 -21 -21 -21 -21 -21 -21 -21 -21 -21 -20 -20 -20 -20 -20 -19 -19
Height
3053 3049 3045 3043 3040 3040 3041 3039 3038 3037 3037 3037 3031 3028 3029 3030 3029 3031 3031 3029 3031 3033 3033 3031 3031 3029 3032 3033 3033 3033 3034 3033 3032 3032 3032 3034 3034 3033 3035 3035 3034 3032 3030 3014
3042 3039 3034 3032 3030 3027 3028 3027 3026 3027 3027 3023 3020 3020 3019 3020 3019 3021 3021 3020 3022 3024 3024 3025 3020 3021 3024 3026 3028 3027 3029 3026 3026 3024 3027 3025 3022 3023 3026 3027 3029 3021 3022 3011
3031 3029 3024 3020 3017 3015 3017 3017 3015 3015 3014 3013 3012 3012 3008 3008 3008 3008 3010 3010 3013 3014 3013 3015 3011 3011 3015 3017 3019 3021 3020 3016 3014 3011 3015 3015 3013 3013 3015 3018 3016 3013 3008 2998
3022 3019 3016 3014 3012 3009 3007 3007 3006 3004 3005 3005 3003 3002 3001 3001 3001 3001 3002 3000 3002 3002 3002 3004 3003 3005 3006 3007 3009 3010 3011 3003 3009 3006 3008 3008 3007 3008 3009 3008 3007 3006 2998 2991
3017 3014 3012 3010 3006 3004 3003 3003 3002 3000 2999 2998 2996 2995 2993 2992 2992 2992 2993 2993 2991 2992 2992 2993 2995 2994 2996 2997 2997 2999 3000 2994 3000 2994 2999 3001 2999 2997 3000 3000 2998 2995 2992 2976
3014 3011 3008 3005 3003 2998 2996 2996 2995 2994 2995 2992 2991 2990 2988 2987 2986 2987 2986 2984 2983 2983 2986 2985 2985 2986 2986 2987 2989 2991 2992 2991 2993 2985 2992 2993 2987 2980 2987 2988 2986 2987 2979 2977
3010 3007 3003 3000 2998 2994 2992 2992 2991 2990 2989 2988 2987 2986 2984 2983 2981 2979 2978 2979 2978 2979 2977 2976 2976 2976 2977 2979 2981 2982 2983 2985 2985 2980 2985 2977 2969 2976 2978 2977 2976 2977 2972 2974
3005 3001 2998 2994 2992 2989 2986 2986 2985 2984 2983 2984 2983 2981 2979 2978 2977 2976 2974 2974 2973 2971 2971 2970 2968 2970 2971 2968 2969 2974 2975 2978 2976 2975 2970 2968 2967 2972 2969 2968 2967 2968 2966 2966
3001 2997 2992 2989 2985 2982 2979 2980 2981 2979 2980 2980 2979 2977 2976 2973 2971 2970 2969 2967 2967 2967 2966 2966 2963 2961 2963 2963 2962 2963 2965 2965 2969 2968 2964 2957 2955 2960 2960 2959 2952 2959 2957 2957
2996 2992 2988 2983 2979 2976 2973 2975 2975 2976 2975 2976 2975 2973 2971 2970 2968 2966 2964 2963 2963 2963 2962 2962 2960 2958 2958 2956 2956 2959 2957 2954 2953 2955 2956 2953 2948 2952 2954 2953 2953 2948 2948 2948
2991 2987 2984 2980 2976 2972 2971 2971 2970 2972 2972 2972 2970 2969 2967 2965 2964 2963 2963 2963 2961 2961 2960 2958 2956 2953 2952 2951 2951 2950 2951 2947 2948 2947 2944 2942 2944 2945 2947 2944 2942 2942 2940 2941
2985 2981 2979 2976 2972 2969 2968 2967 2967 2967 2969 2969 2966 2963 2962 2960 2960 2959 2958 2958 2958 2957 2957 2957 2955 2954 2952 2949 2946 2944 2946 2945 2943 2945 2942 2939 2938 2939 2938 2936 2936 2934 2934 2934
2979 2975 2973 2972 2970 2967 2966 2964 2965 2965 2965 2964 2962 2960 2959 2957 2956 2955 2954 2954 2954 2954 2954 2953 2952 2951 2950 2949 2946 2945 2943 2941 2940 2940 2939 2936 2935 2934 2933 2932 2930 2929 2927 2926
2976 2971 2969 2969 2967 2966 2963 2962 2963 2963 2962 2960 2960 2957 2955 2953 2952 2951 2950 2950 2949 2949 2950 2950 2949 2948 2947 2946 2945 2943 2943 2940 2937 2936 2936 2933 2932 2931 2929 2927 2924 2922 2919 2919
2975 2971 2968 2966 2965 2963 2962 2962 2961 2959 2961 2957 2955 2954 2952 2950 2949 2948 2947 2945 2945 2945 2946 2946 2946 2945 2945 2943 2942 2941 2940 2938 2937 2935 2934 2933 2932 2928 2926 2923 2919 2917 2914 2912
2971 2969 2966 2964 2962 2961 2960 2959 2958 2956 2955 2954 2953 2952 2950 2949 2947 2946 2943 2942 2941 2942 2942 2941 2940 2940 2942 2941 2940 2942 2941 2940 2937 2934 2934 2933 2931 2928 2925 2921 2917 2914 2910 2908
2967 2964 2963 2961 2960 2958 2957 2957 2955 2953 2953 2952 2951 2949 2948 2947 2945 2943 2941 2940 2939 2939 2938 2938 2937 2938 2939 2938 2940 2941 2940 2940 2939 2936 2935 2934 2933 2929 2926 2922 2918 2915 2911 2908
2963 2961 2959 2958 2956 2955 2955 2953 2952 2951 2951 2951 2950 2949 2947 2945 2943 2942 2940 2939 2938 2937 2937 2937 2937 2937 2937 2939 2940 2940 2940 2939 2939 2938 2935 2933 2932 2930 2928 2925 2921 2920 2916 2910
2962 2960 2958 2957 2956 2955 2954 2950 2950 2948 2953 2951 2950 2947 2946 2944 2941 2940 2940 2939 2938 2939 2937 2937 2938 2937 2939 2941 2940 2940 2939 2938 2937 2936 2935 2934 2932 2929 2927 2926 2923 2923 2920 2918
2963 2961 2960 2958 2957 2955 2955 2953 2953 2952 2952 2951 2950 2948 2945 2944 2941 2941 2942 2940 2939 2939 2941 2940 2940 2942 2942 2941 2940 2939 2938 2937 2936 2935 2933 2932 2930 2929 2927 2925 2926 2924 2922 2921
2965 2963 2961 2960 2958 2957 2955 2954 2954 2953 2952 2951 2949 2947 2944 2943 2942 2941 2941 2941 2940 2940 2943 2942 2943 2944 2943 2941 2940 2939 2938 2937 2935 2934 2932 2931 2930 2928 2928 2927 2926 2925 2923 2922
2965 2963 2962 2961 2959 2959 2958 2956 2955 2954 2952 2951 2949 2947 2945 2943 2942 2941 2941 2941 2941 2942 2942 2943 2944 2944 2943 2941 2940 2939 2938 2936 2935 2934 2932 2931 2929 2929 2928 2926 2926 2924 2923 2921
2966 2964 2963 2963 2964 2962 2960 2959 2957 2954 2952 2950 2948 2947 2945 2943 2943 2942 2941 2941 2942 2943 2943 2943 2944 2943 2942 2941 2940 2938 2937 2935 2934 2932 2931 2930 2928 2927 2926 2925 2924 2922 2921 2920
2968 2967 2966 2967 2967 2966 2963 2959 2956 2953 2950 2948 2947 2946 2945 2943 2942 2942 2941 2942 2943 2942 2943 2944 2943 2943 2942 2940 2939 2937 2936 2934 2932 2931 2929 2928 2927 2926 2924 2923 2922 2921 2920 2919
2969 2970 2971 2971 2970 2966 2962 2958 2955 2951 2948 2946 2946 2945 2945 2943 2943 2942 2942 2942 2942 2943 2944 2943 2943 2942 2941 2939 2938 2936 2934 2933 2931 2929 2927 2926 2925 2923 2922 2921 2919 2918 2918 2918
2972 2973 2973 2972 2970 2967 2963 2958 2954 2950 2947 2946 2945 2944 2944 2943 2942 2943 2942 2943 2943 2944 2943 2942 2941 2940 2939 2938 2937 2935 2933 2932 2930 2928 2926 2924 2923 2921 2920 2918 2917 2916 2916 2915
2975 2974 2973 2971 2969 2965 2961 2957 2954 2950 2948 2945 2945 2944 2944 2944 2943 2943 2943 2944 2944 2943 2942 2941 2940 2939 2938 2937 2936 2934 2932 2931 2929 2927 2925 2923 2922 2920 2918 2916 2915 2914 2913 2912
Wind_Speed
42 42 43 43 43 41 37 36 34 27 22 25 28 34 35 30 31 26 26 31 32 30 23 22 23 25 24 11 7 10 11 10 15 21 20 19 20 24 27 14 12 13 13 18
42 42 44 43 42 42 37 35 35 32 29 33 36 38 37 36 36 33 28 24 23 23 27 25 30 31 31 25 25 16 22 22 21 18 20 26 27 34 34 31 26 19 12 9
40 39 39 40 38 37 33 30 26 22 24 28 28 23 30 30 33 35 34 33 28 26 29 27 25 24 20 23 19 18 13 26 27 23 26 13 13 24 31 35 26 31 34 50
32 30 28 24 22 22 23 20 18 21 17 17 24 24 26 20 19 21 15 19 22 28 28 29 36 33 32 34 38 41 35 35 26 30 29 29 27 25 22 27 34 33 41 47
20 21 20 21 20 20 21 18 18 19 21 24 27 25 21 19 18 19 17 22 30 28 27 21 21 22 21 23 19 23 27 34 26 39 36 35 39 39 34 35 34 39 44 60
21 23 24 20 18 20 21 20 21 13 18 20 19 15 20 24 24 30 21 18 23 26 25 26 26 32 25 20 18 21 24 22 16 29 24 25 29 40 39 43 47 42 47 54
24 25 25 22 19 22 21 18 20 18 17 16 12 14 15 17 18 20 27 29 33 29 31 32 36 36 31 30 29 24 23 23 19 18 16 16 30 21 21 28 32 33 43 40
25 26 25 20 20 22 22 19 17 21 19 16 13 14 14 14 14 18 22 22 18 17 17 22 25 27 25 28 37 40 42 33 18 14 24 27 27 13 14 20 25 23 27 31
24 23 24 22 21 19 21 18 13 18 18 13 11 13 14 17 17 18 17 11 10 12 12 11 11 13 23 19 16 20 24 32 37 28 20 13 17 20 26 36 39 32 37 40
23 21 23 22 20 17 17 15 15 15 17 9 12 15 17 13 15 14 16 14 11 8 9 10 15 20 16 18 23 26 23 23 39 37 32 23 28 27 18 15 14 21 25 26
23 21 22 21 18 14 10 12 13 14 14 9 8 14 16 19 18 16 16 15 11 7 9 6 6 6 6 11 18 26 15 11 25 23 23 19 14 14 13 19 20 25 26 23
26 24 21 20 19 7 9 10 10 10 8 9 13 15 17 9 8 12 14 14 14 8 6 6 8 11 13 14 5 12 6 8 12 4 3 3 7 10 12 17 22 25 32 33
24 21 19 16 14 13 7 2 2 5 10 11 10 7 8 10 12 16 15 14 14 11 11 12 10 11 8 7 8 7 12 8 2 4 7 12 9 8 14 18 19 21 26 29
24 17 10 13 11 8 6 3 6 10 12 14 10 13 13 12 9 11 13 13 16 16 11 13 18 9 7 9 10 8 10 10 11 4 3 2 5 9 9 10 12 17 22 26
20 15 11 13 9 8 8 9 11 11 9 14 12 7 7 9 8 11 13 12 12 14 14 12 11 12 12 12 8 5 10 12 13 11 13 15 16 16 15 14 13 11 12 17
18 15 12 12 11 10 10 12 9 9 9 9 7 7 6 8 9 9 10 7 8 8 11 13 15 18 12 7 5 3 5 8 12 9 6 12 13 13 13 14 16 14 13 9
19 16 14 12 11 12 10 7 8 6 9 9 6 4 4 8 10 10 10 7 7 5 9 8 7 9 8 7 8 5 3 3 5 8 5 8 6 9 13 14 17 18 14 10
17 13 10 8 7 7 7 7 8 8 6 3 3 6 10 7 10 7 4 5 4 2 1 3 4 6 6 5 4 2 1 2 3 4 6 8 9 7 6 6 6 7 11 14
13 9 6 6 6 6 5 3 10 4 2 2 7 11 6 9 7 1 3 4 4 6 6 2 1 5 7 7 5 3 2 2 3 4 5 6 7 7 6 5 4 2 5 7
11 10 7 7 8 7 5 4 3 2 4 6 10 11 10 9 5 4 1 4 4 3 7 7 12 15 9 6 5 4 4 4 5 7 8 9 8 7 5 4 3 2 2 3
8 9 9 9 6 7 4 5 3 4 2 6 11 12 10 8 6 6 2 2 1 2 3 2 3 6 8 6 5 5 6 6 6 6 6 6 6 6 5 4 4 3 1 2
10 8 5 8 8 6 5 8 5 5 3 10 9 9 8 6 5 3 1 1 1 2 3 2 3 5 6 6 5 5 6 6 6 6 6 7 7 7 6 6 6 5 3 3
10 10 6 5 7 9 8 11 7 9 9 8 7 7 5 4 5 1 1 1 2 5 1 3 2 4 6 6 6 7 7 7 7 7 7 7 6 7 6 6 6 6 6 4
5 10 12 9 7 10 13 16 15 13 8 5 6 6 4 5 2 1 1 3 3 2 2 2 2 4 6 7 8 8 9 9 9 9 9 9 9 8 9 9 8 7 7 7
6 6 6 11 13 15 16 16 15 13 10 5 5 4 4 3 1 1 2 1 2 2 1 3 5 6 7 8 9 9 9 9 10 10 10 10 9 9 8 8 9 9 9 8
14 9 7 9 14 16 16 16 14 11 8 5 3 2 2 2 2 1 2 2 2 0 3 5 6 7 8 8 8 9 9 9 9 8 9 9 9 9 8 8 8 8 9 9
5 6 7 10 15 18 18 17 16 13 10 6 1 2 1 2 2 3 3 2 1 3 5 6 6 6 6 6 6 7 8 8 9 8 8 9 9 8 9 9 8 8 8 8
Wind_Direction
296 296 296 296 296 294 293 290 292 288 279 268 257 256 260 265 261 254 254 256 255 245 243 257 256 248 237 246 253 240 245 232 237 248 258 252 245 243 224 222 221 224 257 269
297 297 295 295 295 294 294 290 285 281 274 263 268 272 268 265 263 257 252 249 249 253 256 261 255 255 253 241 245 248 249 242 251 246 251 246 241 243 239 236 246 227 233 249
298 299 300 302 304 302 300 295 289 279 268 264 258 259 262 260 261 259 254 255 255 253 253 246 252 247 235 231 230 228 240 239 236 246 246 238 224 245 243 229 231 242 238 256
308 309 308 305 308 312 314 306 285 271 257 240 246 251 253 256 260 260 246 249 246 245 252 251 250 256 259 259 250 249 259 254 249 254 254 255 262 263 259 248 251 242 264 259
333 329 326 322 317 301 295 305 306 295 284 274 261 255 264 265 270 258 245 246 248 243 252 253 258 258 250 244 243 236 241 252 254 257 256 256 261 259 258 257 255 257 262 271
329 328 325 321 313 306 304 295 295 290 305 304 300 288 282 274 271 263 271 270 267 258 255 247 241 245 250 235 224 233 229 233 238 257 256 256 257 257 251 255 257 255 257 270
323 322 322 316 312 303 298 299 289 293 293 296 301 308 300 289 283 277 277 271 276 277 274 268 265 266 257 251 241 228 240 247 244 259 256 230 253 269 260 256 263 266 270 275
320 321 321 312 306 296 290 289 289 275 273 279 305 310 311 302 287 284 288 286 279 279 285 292 282 270 266 260 260 254 260 253 255 244 249 255 260 268 262 255 264 265 263 264
322 323 325 317 310 294 279 281 265 278 280 282 300 300 305 302 305 292 285 323 252 281 281 265 258 254 261 257 254 255 245 241 237 240 250 251 263 242 248 251 260 254 257 263
323 323 332 329 325 300 284 276 268 269 264 284 302 302 296 301 307 297 310 306 284 258 275 271 264 259 253 249 248 252 248 235 226 232 240 252 255 256 240 240 260 236 246 258
317 316 328 331 325 316 293 272 258 250 254 293 308 302 296 292 291 288 292 285 288 259 268 281 295 283 245 252 253 255 254 248 239 246 241 233 273 263 257 255 246 245 248 257
309 303 309 326 325 310 312 284 256 226 261 304 309 301 296 286 299 295 286 268 273 249 256 283 301 298 299 312 299 355 204 235 253 283 128 258 313 303 304 294 284 274 256 255
330 311 301 312 322 305 279 219 20 308 311 326 315 337 323 275 285 291 287 274 274 286 272 277 281 296 288 305 300 329 344 325 257 189 238 268 282 284 288 292 283 273 270 253
345 335 317 316 317 321 324 335 318 309 312 308 308 305 300 288 292 295 289 275 271 276 268 282 286 276 280 276 286 329 336 337 342 11 294 304 320 334 323 319 296 273 259 261
337 341 324 316 315 316 333 325 313 306 300 297 309 303 310 306 300 307 302 281 273 269 266 269 266 271 265 258 261 17 358 347 348 339 349 350 342 348 354 348 338 312 281 258
324 324 325 322 319 323 316 314 311 310 309 314 332 302 288 294 311 313 331 298 281 248 244 237 242 235 217 198 127 85 27 12 360 346 356 357 351 351 3 11 6 358 343 302
322 318 311 308 309 312 317 312 311 308 307 323 320 301 295 310 312 312 314 322 308 271 246 224 221 230 226 149 117 126 114 39 14 16 298 285 341 19 16 8 11 4 4 5
333 327 327 321 318 321 327 327 315 301 301 329 339 321 316 311 317 318 318 336 331 349 291 158 153 139 128 85 66 56 256 239 345 356 11 6 359 343 344 13 19 8 30 45
360 9 13 18 10 6 9 27 6 204 101 51 356 1 341 339 339 348 312 12 50 63 70 87 117 84 57 39 42 26 359 329 290 318 340 338 323 331 337 344 342 54 81 93
21 31 39 24 19 17 29 25 71 73 63 30 3 0 356 353 28 62 321 47 60 70 50 55 70 67 52 34 24 14 0 342 331 327 307 298 305 314 325 343 332 24 100 120
21 24 24 14 15 21 27 17 15 9 352 347 353 358 0 8 32 39 59 113 75 85 65 74 87 43 36 27 9 353 345 340 334 327 322 323 320 321 316 316 315 315 304 233
12 0 12 32 29 18 14 4 360 334 320 330 336 351 355 12 36 62 92 136 114 111 123 98 91 18 15 6 354 344 338 331 326 318 314 309 307 303 299 294 289 283 278 266
32 37 41 27 27 22 17 4 355 343 329 330 338 351 354 359 12 56 102 96 97 132 137 94 73 360 353 348 342 335 332 332 330 328 324 318 314 310 308 305 302 300 298 289
64 55 48 45 24 11 11 4 356 354 338 327 336 334 352 360 352 11 44 113 138 110 97 128 338 336 340 338 336 333 330 328 326 323 319 317 313 309 307 305 303 301 298 299
66 55 53 40 29 18 9 2 356 349 349 331 328 321 337 335 347 29 109 115 78 85 104 322 324 331 331 330 328 329 328 326 323 320 318 317 316 314 309 304 300 297 291 282
71 79 62 33 17 11 8 4 1 359 358 355 346 332 329 355 36 29 65 64 76 343 323 322 326 325 328 331 331 333 334 334 333 330 325 322 322 322 318 313 307 302 299 296
74 45 15 8 3 4 7 11 15 17 18 21 31 3 40 43 41 55 58 76 9 331 325 326 329 333 335 339 341 342 342 342 342 341 338 336 333 329 327 327 322 313 304 298